Preview of NWS' New Version of Forecast
This preview is not operational and should not be used for support decisions.

Regional Weather Roundup (RWR)

Issued by National Weather Service (NWS)

                            
000
ASUS44 KJAN 170710
RWRMS 

MISSISSIPPI HOURLY WEATHER ROUNDUP
NATIONAL WEATHER SERVICE JACKSON MS
200 AM CDT MON JUN 17 2019

NOTE: "FAIR: INDICATES FEW OR NO CLOUDS BELOW 12,000 FEET WITH NO
SIGNIFICANT WEATHER AND/OR OBSTRUCTIONS TO VISIBILITY.

MSZ001>002-007>008-010>013-018>021-025>028-034>036-170800-
NORTHWEST MISSISSIPPI
  
CITY           SKY/WX    TMP DP  RH WIND       PRES   REMARKS
BATESVILLE       N/A     72  70  94 S5        29.91F                  
CLARKSDALE     CLEAR     72  72 100 S8        29.90F                  
CLEVELAND      FAIR      71  70  99 SE12      29.89F                  
GREENWOOD      FAIR      72  69  90 S9        29.92F                  
GREENVILLE     FAIR      70  66  87 SE16      29.88F                  
OLIVE BRANCH   FOG       72  72 100 S8        29.90R VSB 1/4          
OXFORD         FAIR      70  70 100 S5        29.93F                  
TUNICA           N/A     72  66  83 S8        29.90S                  
WINONA         FAIR      72  71  97 S7        29.94F                  
$$

MSZ003>006-009-014>017-022>024-029>033-037>039-170800-
NORTHEAST MISSISSIPPI
  
CITY           SKY/WX    TMP DP  RH WIND       PRES   REMARKS
ABERDEEN       FAIR      75  75 100 S3        29.95F                  
COLUMBUS AFB   FAIR      74  67  76 W3        29.93F                  
CORINTH        RAIN      72  70  94 SW10G24   29.96R VSB 1            
GOLDN TRIANGLE MOCLDY    74  67  78 SW3       29.95F                  
STARKVILLE     FAIR      72  68  88 CALM      29.96S                  
TUPELO         FAIR     N/A N/A N/A CALM      29.94F                  
$$

MSZ040-058-170800-
CENTRAL MISSISSIPPI
  
CITY           SKY/WX    TMP DP  RH WIND       PRES   REMARKS
JACKSON INTL   FAIR      72  69  90 CALM      29.95F                  
JACKSON HAWKNS FAIR      71  71 100 CALM      29.96F                  
MADISON        FAIR      68  68 100 CALM      29.95F                  
MERIDIAN KEY   FAIR      72  69  90 S5        29.95F                  
MERIDIAN NAS   FAIR      70  68  93 S6        29.95F                  
RAYMOND        FAIR      70  70 100 CALM      29.95F                  
VICKSBURG VKS  SUNNY     70  70 100 SE5       29.94F                  
$$

MSZ059>079-170800-
SOUTH MISSISSIPPI
  
CITY           SKY/WX    TMP DP  RH WIND       PRES   REMARKS
BROOKHAVEN     FAIR      70  70 100 CALM      29.98F                  
HATTIESBURG    FAIR      72  71  97 E3        29.97F                  
LAUREL         SUNNY     71  70  95 S5        29.96F                  
MCCOMB         FAIR      70  68  93 SE5       29.96F                  
NATCHEZ        FAIR      67  66  97 SE6       29.96F                  
PINE BELT      FOG       70  70 100 SE5       29.98F VSB 1/4          
$$

MSZ080>082-170800-
COASTAL MISSISSIPPI
  
CITY           SKY/WX    TMP DP  RH WIND       PRES   REMARKS
BILOXI         CLOUDY    75  73  93 E5        29.95F                  
PASCAGOULA     FAIR      72  69  90 CALM      29.97F                  
GULFPORT       FAIR      75  72  90 E3        29.94F                  
$$

LAZ007>009-015>016-023>026-170800-
NORTHEAST LOUISIANA
  
CITY           SKY/WX    TMP DP  RH WIND       PRES   REMARKS
BASTROP        FAIR      68  68  98 SE5       29.87F                  
TALLULAH/VBURG FAIR      69  68  96 SE7       29.93F                  
VIDALIA        FAIR      69  68  96 E3        29.94F                  
$$